Tours, France

1:02 PM CEST on March 26, 2017 (GMT +0200)
Val de Loire Air Base

Weather History for LFOT - March, 2013

Change the Weather History Date:

Monday, March 25, 2013

  Actual Average Record
Temperature  
Mean Temperature 44 °F -  
Max Temperature 49 °F 57 °F 71 °F (2003)
Min Temperature 39 °F 40 °F 30 °F (1998)
Degree Days  
Heating Degree Days 21    
Moisture  
Dew Point 34 °F    
Average Humidity 69    
Maximum Humidity 81    
Minimum Humidity 51    
Precipitation  
Precipitation 0.00 in - - ()
Sea Level Pressure  
Sea Level Pressure 29.72 in    
Wind  
Wind Speed 7 mph ()    
Max Wind Speed 10 mph    
Max Gust Speed -    
Visibility 5.3 miles    
Events      
Averages and records for this station are not official NWS values.
T = Trace of Precipitation, MM = Missing Value Source: Averaged Metar Reports

Daily Weather History Graph

Daily Weather History Graph

Search for Another Location

Airport or City:

Trip Planner

Search our weather history database for the weather conditions in past years. The results will help you decide how hot, cold, wet, or windy it might be!

Date:

Astronomy

Mar. 25, 2013 Rise Set
Actual Time 6:49 AM CET 7:16 PM CET
Civil Twilight 6:19 AM CET 7:47 PM CET
Nautical Twilight 5:42 AM CET 8:24 PM CET
Astronomical Twilight 5:05 AM CET 9:02 PM CET
Moon 5:27 PM CET (3/25) 5:31 AM CET (3/25)
Length of Visible Light 13h 28m
Length of Day
12h 27m
Waxing Gibbous, 95% of the Moon is Illuminated
Mar 25
Waxing Gibbous
Mar 27
Full
Apr 3
Last Quarter
Apr 10
New
Apr 18
First Quarter

Hourly Weather History & Observations

Time (CET) Temp. Windchill Dew Point Humidity Pressure Visibility Wind Dir Wind Speed Gust Speed Precip Events Conditions
12:00 AM 42.8 °F 38.6 °F 37.4 °F 81% 29.71 in 2.8 mi North 6.9 mph - N/A   Mostly Cloudy
12:30 AM 42.8 °F 38.0 °F 35.6 °F 76% 29.71 in 2.8 mi NNE 8.1 mph - N/A   Mostly Cloudy
1:00 AM 41 °F - 36 °F 75% 29.73 in 3 mi NE 9.2 mph - -   Mostly Cloudy
1:00 AM 41.0 °F 35.2 °F 35.6 °F 81% 29.71 in 3.1 mi NE 9.2 mph - N/A   Mostly Cloudy
1:30 AM 41.0 °F 36.4 °F 35.6 °F 81% 29.71 in 3.1 mi NE 6.9 mph - N/A   Overcast
2:00 AM 41.0 °F 36.4 °F 35.6 °F 81% 29.71 in 3.7 mi NNE 6.9 mph - N/A   Overcast
2:30 AM 41.0 °F 36.4 °F 35.6 °F 81% 29.71 in 3.7 mi NNE 6.9 mph - N/A   Overcast
3:00 AM 41.0 °F 35.8 °F 33.8 °F 76% 29.71 in 3.7 mi NNE 8.1 mph - N/A   Overcast
3:30 AM 39.2 °F 34.2 °F 33.8 °F 81% 29.71 in 4.3 mi NNE 6.9 mph - N/A   Overcast
4:00 AM 39.2 °F 35.0 °F 33.8 °F 81% 29.71 in 4.3 mi NNE 5.8 mph - N/A   Overcast
4:30 AM 39.2 °F 34.2 °F 33.8 °F 81% 29.71 in 4.3 mi NNE 6.9 mph - N/A   Overcast
5:00 AM 39.2 °F 35.0 °F 32.0 °F 75% 29.71 in 4.3 mi NNE 5.8 mph - N/A   Overcast
5:30 AM 39.2 °F 33.6 °F 32.0 °F 75% 29.71 in 4.3 mi NNE 8.1 mph - N/A   Overcast
6:00 AM 39.2 °F 32.5 °F 32.0 °F 75% 29.74 in 5.0 mi NE 10.4 mph - N/A   Overcast
6:30 AM 39.2 °F 34.2 °F 32.0 °F 75% 29.74 in 5.6 mi NE 6.9 mph - N/A   Overcast
7:00 AM 39 °F - 31 °F 64% 29.77 in 6 mi NNE 6.9 mph - -   Partly Cloudy
7:00 AM 39.2 °F 34.2 °F 32.0 °F 75% 29.74 in 5.6 mi NNE 6.9 mph - N/A   Overcast
7:30 AM 39.2 °F 33.0 °F 32.0 °F 75% 29.74 in 5.6 mi NE 9.2 mph - N/A   Overcast
8:00 AM 39.2 °F 33.0 °F 32.0 °F 75% 29.74 in 5.0 mi NE 9.2 mph - N/A   Overcast
8:30 AM 39.2 °F 32.5 °F 32.0 °F 75% 29.74 in 5.0 mi NE 10.4 mph - N/A   Overcast
9:00 AM 39.2 °F 33.6 °F 32.0 °F 75% 29.74 in 5.6 mi NE 8.1 mph - N/A   Overcast
9:30 AM 39.2 °F 33.0 °F 32.0 °F 75% 29.74 in 5.0 mi NE 9.2 mph - N/A   Overcast
10:00 AM 39.2 °F 34.2 °F 32.0 °F 75% 29.74 in 5.0 mi NE 6.9 mph - N/A   Overcast
10:30 AM 41.0 °F 35.8 °F 32.0 °F 70% 29.74 in 5.6 mi NE 8.1 mph - N/A   Overcast
11:00 AM 42.8 °F 38.0 °F 32.0 °F 66% 29.74 in 5.6 mi NNE 8.1 mph - N/A   Overcast
11:30 AM 42.8 °F 38.0 °F 32.0 °F 66% 29.74 in 5.6 mi NE 8.1 mph - N/A   Unknown
12:00 PM 42.8 °F 38.0 °F 32.0 °F 66% 29.74 in 5.6 mi NNE 8.1 mph - N/A   Unknown
12:30 PM 44.6 °F 40.2 °F 33.8 °F 66% 29.74 in 5.6 mi NNE 8.1 mph - N/A   Unknown
1:00 PM 46 °F - 34 °F 51% 29.75 in 6 mi NE 8.1 mph - -   Clear
1:00 PM 46.4 °F 42.4 °F 33.8 °F 62% 29.71 in 6.2 mi NE 8.1 mph - N/A   Unknown
1:30 PM 46.4 °F 42.4 °F 35.6 °F 66% 29.71 in 5.6 mi NNE 8.1 mph - N/A   Unknown
2:00 PM 46.4 °F 41.9 °F 33.8 °F 62% 29.71 in 6.2 mi ENE 9.2 mph - N/A   Unknown
2:30 PM 48.2 °F - 35.6 °F 62% 29.71 in 6.2 mi ENE 10.4 mph - N/A   Unknown
3:00 PM 50.0 °F - 37.4 °F 62% 29.71 in 4.3 mi ENE 9.2 mph - N/A   Unknown
3:30 PM 48.2 °F - 35.6 °F 62% 29.68 in 5.0 mi ENE 8.1 mph - N/A   Unknown
4:00 PM 48.2 °F - 35.6 °F 62% 29.68 in 6.2 mi NE 8.1 mph - N/A   Unknown
4:30 PM 48.2 °F - 35.6 °F 62% 29.68 in 6.2 mi NE 5.8 mph - N/A   Unknown
5:00 PM 50.0 °F - 35.6 °F 58% 29.68 in 6.2 mi NE 8.1 mph - N/A   Unknown
5:30 PM 48.2 °F - 33.8 °F 58% 29.68 in 6.2 mi NNE 9.2 mph - N/A   Unknown
6:00 PM 46.4 °F 41.5 °F 33.8 °F 62% 29.68 in 6.2 mi NE 10.4 mph - N/A   Unknown
6:30 PM 46.4 °F 41.5 °F 32.0 °F 57% 29.68 in 6.2 mi NE 10.4 mph - N/A   Unknown
7:00 PM 45 °F - 33 °F 52% 29.71 in 12 mi NE 10.4 mph - -   Mostly Cloudy
7:00 PM 44.6 °F 39.2 °F 33.8 °F 66% 29.68 in - NE 10.4 mph - N/A   Clear
7:30 PM 44.6 °F 39.2 °F 33.8 °F 66% 29.68 in 6.2 mi NE 10.4 mph - N/A   Mostly Cloudy
8:00 PM 44.6 °F 39.7 °F 33.8 °F 66% 29.71 in 6.2 mi NE 9.2 mph - N/A   Mostly Cloudy
8:30 PM 44.6 °F 39.7 °F 33.8 °F 66% 29.71 in 6.2 mi ENE 9.2 mph - N/A   Mostly Cloudy
9:00 PM 44.6 °F 39.7 °F 33.8 °F 66% 29.71 in 6.2 mi ENE 9.2 mph - N/A   Mostly Cloudy
9:30 PM 44.6 °F 40.2 °F 33.8 °F 66% 29.71 in 6.2 mi NE 8.1 mph - N/A   Mostly Cloudy
10:00 PM 44.6 °F 40.2 °F 33.8 °F 66% 29.71 in 6.2 mi ENE 8.1 mph - N/A   Mostly Cloudy
10:37 PM 42.8 °F 38.0 °F 33.8 °F 70% 29.71 in 6.2 mi ENE 8.1 mph - N/A   Mostly Cloudy
11:00 PM 42.8 °F 38.6 °F 32.0 °F 66% 29.71 in 5.6 mi ENE 6.9 mph - N/A   Scattered Clouds
11:30 PM 41.0 °F 38.0 °F 32.0 °F 70% 29.71 in 5.6 mi NE 4.6 mph - N/A   Partly Cloudy